Погода в Ряжске

Хотите узнать прогноз погоды в Ряжске? Тогда Вам сюда: Погода в Ряжске

Поиск расширенной информации на нашем сайте:

Полезная информация:

Новости сайта



02.01.2020
Опубликован Долгосрочный прогноз погоды по городам России и ближнего зарубежья на январь 2020 года.
Карты: Прогноз на январь и февраль 2020 года, Сравнение прогнозируемой аномалии приземной температуры воздуха на январь 2020 года по разным моделям.




Погода в Ряжске - сегодня

Время (UTC), дата Ветер
(°,м/с) 
Видим.   Явления Облачность Т
(°С)
Тd
(°С)
f(%) Тe
(°С)
Pmin
(гПа)
dP
(гПа)
Po
(мм)
O2
(г/м3)
Тmin Tmax R s Состояние
почвы
09 19.09.20 300 (СЗ) 2{11}  10 км  {морось}  10/5 600 м средняя 
[Sc|Ac As]
+10 +5.4 73 +10  1010.7  0.2  747  289           
12 19.09.20 310 (СЗ) 10 км  {морось}  10/10 600 м 
[Sc]
+11.8 +7.5 75 +12  1010.8  0.2  747  287           
15 19.09.20 310 (СЗ) 2{10}  10 км    9/9 600 м 
[Sc]
+11.1 +6.6 74 +11  1011.8  747  288    +12.2  0.0     
18 19.09.20 260 (З) 10 км    9/9 600 м 
[Sc]
+9.2 +6.6 84 +10  1012.2  0.2  748  290           
21 19.09.20 270 (З) 10 км    9/5 1000 м средняя 
[Sc|Ac und]
+7.8 +6.1 89 +8  1011.5  -0.7  747  292           
00 20.09.20 290 (З) 10 км    ясно 
+7 +5.3 89 +7  1011.2  -0.4  747  293           
03 20.09.20 300 (СЗ) 4000 м  дымка  ясно 
+6.3 +5.1 92 +6  1012.1  0.9  747  294  +6.2        влажная 
06 20.09.20 310 (СЗ) 5-10{10}  10 км    6/6 1000 м 
[Cu med, cong]
+9 +5.7 80 +8  1013.9  1.9  749  291  +6.2         
09 20.09.20 330 (СЗ) 5-10{10}  10 км    8/8 1000 м 
[Cu med, cong]
+12.4 +3.7 55 +12  1014.6  0.9  750  288           
12 20.09.20 310 (СЗ) 3{10}  10 км    6/6 1000 м 
[Cu med, cong]
+14.3 +2.9 46 +14  1015.4  0.8  750  287           
15 20.09.20 310 (СЗ) 2{11}  10 км    3/3 1000 м 
[Cu med, cong]
+11.8 +2.9 54 +12  1017.2  1.7  751  290    +14.7       
18 20.09.20 280 (З) 10 км    ясно 
+7.2 +2.7 73 +8  1019  1.5  753  295           
21 20.09.20 270 (З) 10 км    ясно 
+4.3 +2.7 89 +5  1019.9  0.8  753  298           
00 21.09.20 180 (Ю) 4000 м  дымка  ясно 
+1.7 +1.2 96 +2  1020.4  0.2  753  301           
03 21.09.20 210 (ЮЗ) 4000 м  дымка  9/0 средняя, верхняя 
[Ac trans|Ci sp]
+2.3 +1.8 96 +3  1020  -0.3  753  301  +1.3        сухая 
06 21.09.20 260 (З) 10 км    9/0 средняя, верхняя 
[Ac trans|Ci sp]
+7.5 +4.6 82 +7  1019.5  -0.2  753  295           
09 21.09.20 280 (З) 4{12}  10 км    9/3 600 м кучево-дожд., средняя, верхняя 
[Cb calv|Ac trans|Ci sp]
+13.2 +5.7 60 +13  1018.2  -1  752  288           
12 21.09.20 270 (З) 4{12}  10 км    8/3 600 м кучево-дожд., средняя, верхняя 
[Cb calv|Ac trans|Ci sp]
+15.1 +5.9 54 +15  1016.9  -1.2  751  286           
15 21.09.20 270 (З) 2{10}  10 км    10/3 600 м кучево-дожд., средняя 
[Cb calv|Ac As]
+14.5 +6.9 60 +15  1017.1  0.2  751  286    +15.5       
18 21.09.20 260 (З) 10 км    10/3 600 м кучево-дожд., средняя 
[Cb calv|Ac As]
+13.1 +7.1 67 +14  1017  -0.2  751  288           
21 21.09.20 280 (З) 10 км    10/0 средняя 
[Ac As]
+12.3 +7 70 +13  1017.1  0.1  751  289           
00 22.09.20 260 (З) 10 км    8/0 средняя 
[Ac trans]
+9 +6.8 86 +9  1017.5  0.2  752  292           
03 22.09.20 190 (Ю) 4000 м  дымка  10/3 600 м кучево-дожд., средняя 
[Cb calv|Ac As]
+7.9 +7.4 97 +9  1018  0.4  752  293  +7        сухая 
06 22.09.20 240 (ЮЗ) 10 км    9/0 верхняя 
[Ci]
+12.6 +9.6 82 +14  1017.7  752  288           
09 22.09.20 260 (З) 10 км    9/0 верхняя 
[Ci]
+18.4 +11.2 63 +22  1016.8  -0.6  751  282           
Время (UTC), дата Ветер
(°,м/с) 
Видим.   Явления Облачность Т
(°С)
Тd
(°С)
f(%) Тe
(°С)
Pmin
(гПа)
dP
(гПа)
Po
(мм)
O2
(г/м3)
Тmin Tmax R s Состояние
почвы

Для получения пояснительной информации подведите курсор к названию столбца.

ПОГОДА в Ряжске - архив

Всё, что Вы хотите узнать о погоде в Ряжске - удобно и подробно!

Выберите нужную дату (начиная с 1 января 2019* года) и нажмите кнопку "Найти".
Будут отображены архивные сводки погоды по пункту Ряжск, начиная с указанной даты.


Отображать данные в формате CSV (для использования в таблицах Excel)


Внимание! Наш архив погоды предназначен исключительно для личного некоммерческого использования в познавательных целях. Если Вам необходимы официальные справки о состоянии погоды (для производственных, юридических, коммерческих и т.п. целей), обращайтесь в органы Росгидромета.

*Примечание: данная дата относится к архиву по метеостанциям СССР (Россия, СНГ, Балтия).
Архив по метеостанциям Зарубежной Европы и Азии (кроме Китая) хранится 10 дней, по другим регионам земного шара (Китай, Африка, Америка, Австралия, Океания) - 1 день.

Ряжск - район местоположения метеостанции


Название, широта, долгота, высота метеостанции:
Ряжск 53.7°ш. 40.1°д. 127 м над ур. моря [Российская Федерация]

Дополнительная информация

В oтличие oт бoльшинства пoгoдных сайтoв мы публикуем пoдрoбную метеoинфoрмацию в детальнoм прoфессиoнальнoм фoрмате.

Характеристики температуры и влажнoсти вoздуха измеряются на высoте 2 м в тени вдали oт зданий и деревьев.
Скoрoсть ветра измеряется на высoте 10 м (на урoвне рoста челoвека скoрoсть ветра ниже в 1.5-2 раза). Если метеoстанция нахoдится в гoрoде или в лесу, тo скoрoсть ветра занижена на 2-4 м/с пo сравнению с oткрытым местoм. Скoрoсть ветра над акватoриями крупных рек и oзёр, а также на вершинах хoлмoв на 2-5 м/с выше, чем в oбычных услoвиях.
Атмoсфернoе давление в разных тoчках местнoсти мoжет значительнo oтличаться oт давления на метеoстанции, в зависимoсти oт услoвий рельефа (при пoдъёме на 10 м давление пoнижается примернo на 1 мм рт.ст.).